NUSAT-1 (FRESCO) (41557 NORAD) Tracking and Keplerian Element Data

This shows tracking and keplerian element data for the satellite.

Feedback or suggestion? Click here.




ElementValue
Catalog41557
NameNUSAT-1 (FRESCO)
Epoch Orbit35298
Epoch Day270.09350719
Epoch Year2022
RAAN8.1233
Inclination97.3902
Eccentricity0.0010371
Argument of Perigee20.0337
Mean Anonmoly80.3627
Mean Motion15.36949934
Decay Rate0.00014635
L11 41557U 16033B 22270.09350719 .00014635 00000+0 40628-3 0 9993
L22 41557 97.3902 8.1233 0010371 20.0337 80.3627 15.36949934352984

Live tracking and technical data element details for NUSAT-1 (FRESCO) (NORAD 41557). NUSAT-1 (FRESCO) can be tracked NOW for your location showing map with azimuth and elevation plus other details from your city location.

Track the satellite on the map from your city or location and see movement details for azimuth, elevation, latitude, longitude, range, height, and movement on the map or in text.







IsCatalogInMostPopularTable: catalog: 41557, numindb: 618
Update: records affected: 1



GetName: 41557 NUSAT-1 (FRESCO)

Hit Count: updated at: Wed, 05 Oct 2022 10:07:59 GMT